Phoenix-Mesa Gateway Airport, AZ

6:21 AM MST on December 10, 2019 (GMT -0700)
Phoenix-Mesa Gateway Airport

Weather History for KIWA - November, 2019

Change the Weather History Date:

Thursday, November 21, 2019

  Actual Average Record
Temperature  
Mean Temperature 56 °F -  
Max Temperature 60 °F 70 °F 86 °F (2002)
Min Temperature 51 °F 43 °F 42 °F (1998)
Degree Days  
Heating Degree Days 10    
Growing Degree Days 6 (Base 50)    
Moisture  
Dew Point 50 °F    
Average Humidity 83    
Maximum Humidity 94    
Minimum Humidity 59    
Precipitation  
Precipitation 0.01 in - - ()
Sea Level Pressure  
Sea Level Pressure 29.91 in    
Wind  
Wind Speed 5 mph ()    
Max Wind Speed 12 mph    
Max Gust Speed 22 mph    
Visibility 9.6 miles    
Events Rain , Thunderstorm    
Averages and records for this station are not official NWS values.
T = Trace of Precipitation, MM = Missing Value Source: Averaged Metar Reports

Daily Weather History Graph

Daily Weather History Graph

Search for Another Location

Airport or City:

Astronomy

Nov. 21, 2019 Rise Set
Actual Time 7:03 AM MST 5:21 PM MST
Civil Twilight 6:36 AM MST 5:48 PM MST
Nautical Twilight 6:06 AM MST 6:18 PM MST
Astronomical Twilight 5:36 AM MST 6:47 PM MST
Moon 1:25 AM MST (11/21) 2:32 PM MST (11/21)
Length of Visible Light 11h 11m
Length of Day
10h 18m
Waning Crescent, 29% of the Moon is Illuminated
Nov 21
Waning Crescent
Nov 26
New
Dec 3
First Quarter
Dec 11
Full
Dec 18
Last Quarter

Hourly Weather History & Observations

Time (MST) Temp. Dew Point Humidity Pressure Visibility Wind Dir Wind Speed Gust Speed Precip Events Conditions
12:15 AM 54.1 °F 51.4 °F 91% 29.83 in 10.0 mi Calm Calm - N/A   Overcast
12:35 AM 54.1 °F 51.4 °F 91% 29.83 in 10.0 mi NE 4.6 mph - N/A   Overcast
12:55 AM 54.1 °F 51.4 °F 91% 29.82 in 10.0 mi NE 8.1 mph - N/A Rain Light Rain
1:15 AM 53.2 °F 51.1 °F 92% 29.83 in 10.0 mi South 6.9 mph - N/A   Mostly Cloudy
1:35 AM 54.9 °F 50.4 °F 85% 29.84 in 10.0 mi ESE 4.6 mph - N/A   Mostly Cloudy
1:55 AM 54.3 °F 51.1 °F 89% 29.84 in 10.0 mi ESE 3.5 mph - N/A   Mostly Cloudy
2:15 AM 54.5 °F 50.7 °F 87% 29.84 in 10.0 mi ESE 4.6 mph - N/A   Overcast
2:35 AM 54.3 °F 51.4 °F 90% 29.83 in 10.0 mi ENE 5.8 mph - N/A   Light Drizzle
2:55 AM 55.2 °F 50.7 °F 85% 29.84 in 10.0 mi NE 4.6 mph - N/A   Overcast
3:15 AM 55.0 °F 51.3 °F 87% 29.84 in 7.0 mi East 5.8 mph - 0.01 in Rain Light Rain
3:35 AM 55.2 °F 51.4 °F 87% 29.84 in 10.0 mi South 8.1 mph - 0.01 in Rain Light Rain
3:55 AM 54.9 °F 51.1 °F 87% 29.83 in 10.0 mi NE 3.5 mph - 0.01 in   Light Drizzle
4:15 AM 54.5 °F 51.3 °F 89% 29.83 in 10.0 mi SE 5.8 mph - N/A   Mostly Cloudy
4:35 AM 54.3 °F 51.1 °F 89% 29.83 in 10.0 mi ESE 8.1 mph - N/A   Mostly Cloudy
4:50 AM 53.6 °F 51.8 °F 94% 29.83 in 10.0 mi ESE 5.8 mph - N/A   Overcast
5:50 AM 53.6 °F 51.8 °F 94% 29.85 in 4.0 mi ESE 8.1 mph - N/A Thunderstorm Mostly Cloudy
6:50 AM 51.8 °F 48.2 °F 88% 29.87 in 10.0 mi WSW 11.5 mph - N/A Rain Rain
7:55 AM 51.8 °F 50.0 °F 94% 29.88 in 10.0 mi East 10.4 mph - N/A   Overcast
8:55 AM 53.6 °F 50.0 °F 88% 29.90 in 10.0 mi East 8.1 mph - N/A Rain Light Rain
9:50 AM 55.4 °F 51.8 °F 88% 29.91 in 10.0 mi SE 9.2 mph - N/A Rain Light Rain
10:55 AM 57.2 °F 51.8 °F 82% 29.92 in 10.0 mi SE 8.1 mph - N/A   Overcast
11:30 AM 59.0 °F 50.0 °F 72% 29.92 in 10.0 mi SE 5.8 mph - N/A Thunderstorm Overcast
11:50 AM 59.0 °F 48.2 °F 67% 29.91 in 10.0 mi SSW 10.4 mph - N/A   Overcast
12:55 PM 55.4 °F 50.0 °F 82% 29.92 in 10.0 mi NNW 10.4 mph - N/A   Mostly Cloudy
1:47 PM 57.2 °F 48.2 °F 72% 29.91 in 10.0 mi NE 4.6 mph - N/A   Mostly Cloudy
2:50 PM 59.0 °F 46.4 °F 63% 29.92 in 10.0 mi Calm Calm - N/A   Scattered Clouds
3:55 PM 60.8 °F 46.4 °F 59% 29.93 in 10.0 mi Variable 4.6 mph - N/A   Scattered Clouds
4:50 PM 60.8 °F 46.4 °F 59% 29.95 in 10.0 mi SE 5.8 mph - N/A Thunderstorm Mostly Cloudy
5:05 PM 59.0 °F 48.2 °F 67% 29.98 in 10.0 mi NNW 11.5 mph 21.9 mph N/A   Mostly Cloudy
5:50 PM 55.4 °F 44.6 °F 67% 29.99 in 10.0 mi NNE 6.9 mph 15.0 mph N/A   Mostly Cloudy
6:40 PM 55.4 °F 50.0 °F 82% 30.04 in 3.0 mi SW 5.8 mph - N/A Rain Light Rain
7:50 PM 53.6 °F 50.0 °F 88% 30.06 in 10.0 mi East 6.9 mph - N/A Rain Light Rain
8:50 PM 53.6 °F 50.0 °F 88% 30.07 in 10.0 mi SE 10.4 mph - N/A   Mostly Cloudy
9:55 PM 53.6 °F 50.0 °F 88% 30.08 in 10.0 mi ESE 9.2 mph - N/A   Mostly Cloudy
10:55 PM 53.6 °F 50.0 °F 88% 30.10 in 10.0 mi SE 5.8 mph - N/A Rain Light Rain
11:47 PM 53.6 °F 50.0 °F 88% 30.10 in 10.0 mi SE 5.8 mph - N/A Rain Light Rain